Location: Dodgeville, WI 53533, USA
(43.0344°N, 90.0900°W)
Time: 04:44:52
(UTC-06:00)

X-37B - Pass Details

Date: 01 February 2021
Orbit: 383 x 391 km, 45.0° (Epoch: 10 February)

Event Time Altitude Azimuth Distance (km) Brightness Sun altitude
Rises 18:49:39 0° 274° (W) 2,271 6.1 -17.8°
Reaches altitude 10° 18:52:52 10° 239° (WSW) 1,413 4.4 -18.4°
Maximum altitude 18:53:59 11° 219° (SW) 1,332 3.9 -18.6°
Drops below altitude 10° 18:55:05 10° 198° (SSW) 1,412 3.7 -18.8°
Enters shadow 18:57:16 - 171° (S) 1,927 4.1 -19.2°
